| time (UTC) | temp C | wind direction | speed KPH | gust KPH | rain 1hr cm | rain 24hr cm | rain mn cm | humidity % | barometer mb |
| 20260505083041 | 11 | 0 | 0.0 | 3.2 | 0.00 | 0.00 | 0.00 | 67 | 1016.3 |
| 20260505081548 | 12 | 0 | 0.0 | 3.2 | 0.00 | 0.00 | 0.00 | 65 | 1016.1 |
| 20260505080048 | 12 | 0 | 0.0 | 3.2 | 0.00 | 0.00 | 0.00 | 65 | 1016.0 |
| 20260505074536 | 12 | 0 | 0.0 | 0.0 | 0.00 | 0.00 | 0.00 | 63 | 1016.0 |
| 20260505073041 | 12 | 0 | 0.0 | 0.0 | 0.00 | 0.00 | 0.00 | 64 | 1016.1 |
| 20260505071550 | 12 | 0 | 0.0 | 0.0 | 0.00 | 0.00 | 0.00 | 65 | 1015.9 |
| 20260505070041 | 12 | 0 | 0.0 | 0.0 | 0.00 | 0.00 | 0.00 | 64 | 1015.8 |
| 20260505064539 | 12 | 0 | 0.0 | 0.0 | 0.00 | 0.00 | 0.00 | 62 | 1016.0 |
| 20260505063045 | 13 | 0 | 0.0 | 0.0 | 0.00 | 0.00 | 0.00 | 60 | 1015.8 |
| 20260505061545 | 15 | 0 | 0.0 | 3.2 | 0.00 | 0.00 | 0.00 | 53 | 1015.9 |
| 20260505060044 | 15 | 227 | 0.0 | 3.2 | 0.00 | 0.00 | 0.00 | 52 | 1015.9 |
| 20260505054547 | 15 | 234 | 0.0 | 3.2 | 0.00 | 0.00 | 0.00 | 52 | 1015.8 |
| 20260505053045 | 15 | 194 | 0.0 | 3.2 | 0.00 | 0.00 | 0.00 | 53 | 1015.7 |
| 20260505051543 | 15 | 219 | 0.0 | 4.8 | 0.00 | 0.00 | 0.00 | 51 | 1015.9 |
| 20260505041540 | 16 | 0 | 0.0 | 0.0 | 0.00 | 0.00 | 0.00 | 49 | 1015.9 |
| 20260505040040 | 16 | 0 | 0.0 | 0.0 | 0.00 | 0.00 | 0.00 | 49 | 1015.8 |
| 20260505034542 | 16 | 260 | 0.0 | 3.2 | 0.00 | 0.00 | 0.00 | 49 | 1015.9 |
| 20260505033044 | 16 | 216 | 0.0 | 3.2 | 0.00 | 0.00 | 0.00 | 50 | 1015.9 |
| 20260505031548 | 16 | 198 | 0.0 | 3.2 | 0.00 | 0.00 | 0.00 | 52 | 1016.1 |
| 20260505030038 | 15 | 0 | 0.0 | 3.2 | 0.00 | 0.00 | 0.00 | 58 | 1016.1 |
| 20260505024537 | 15 | 0 | 0.0 | 3.2 | 0.00 | 0.00 | 0.00 | 55 | 1016.1 |
| 20260505023042 | 15 | 0 | 0.0 | 3.2 | 0.00 | 0.00 | 0.00 | 54 | 1016.2 |
| 20260505021537 | 16 | 0 | 0.0 | 3.2 | 0.00 | 0.00 | 0.00 | 57 | 1016.0 |
| 20260505020047 | 16 | 207 | 0.0 | 1.6 | 0.00 | 0.00 | 0.00 | 58 | 1015.8 |
| 20260505014547 | 16 | 0 | 0.0 | 3.2 | 0.00 | 0.00 | 0.00 | 57 | 1015.9 |
| 20260505013040 | 16 | 0 | 0.0 | 3.2 | 0.00 | 0.00 | 0.00 | 55 | 1015.7 |
| 20260505011543 | 17 | 0 | 0.0 | 0.0 | 0.00 | 0.00 | 0.00 | 51 | 1015.6 |
| 20260505010101 | 17 | 0 | 0.0 | 0.0 | 0.00 | 0.00 | 0.00 | 50 | 1015.5 |
| 20260505004536 | 18 | 0 | 0.0 | 3.2 | 0.00 | 0.00 | 0.00 | 49 | 1015.2 |
| 20260505003045 | 18 | 0 | 0.0 | 3.2 | 0.00 | 0.00 | 0.00 | 47 | 1015.1 |
| 20260505001540 | 19 | 202 | 0.0 | 3.2 | 0.00 | 0.00 | 0.00 | 46 | 1015.0 |
| 20260505000044 | 20 | 0 | 0.0 | 0.0 | 0.00 | 0.00 | 0.00 | 41 | 1015.0 |
| 20260504234536 | 21 | 210 | 0.0 | 3.2 | 0.00 | 0.00 | 0.00 | 38 | 1014.7 |
| 20260504233043 | 22 | 220 | 0.0 | 4.8 | 0.00 | 0.00 | 0.00 | 36 | 1014.6 |
| 20260504231545 | 23 | 178 | 1.6 | 8.0 | 0.00 | 0.00 | 0.00 | 35 | 1014.6 |
| 20260504230045 | 23 | 210 | 0.0 | 6.4 | 0.00 | 0.00 | 0.00 | 35 | 1014.5 |
| 20260504224537 | 23 | 336 | 1.6 | 9.7 | 0.00 | 0.00 | 0.00 | 34 | 1014.6 |
| 20260504223057 | 23 | 246 | 1.6 | 4.8 | 0.00 | 0.00 | 0.00 | 34 | 1014.6 |
| 20260504221555 | 23 | 159 | 3.2 | 8.0 | 0.00 | 0.00 | 0.00 | 35 | 1014.5 |
| 20260504220040 | 23 | 159 | 3.2 | 11.3 | 0.00 | 0.00 | 0.00 | 35 | 1014.5 |
| 20260504214540 | 24 | 323 | 1.6 | 11.3 | 0.00 | 0.00 | 0.00 | 35 | 1014.6 |
| 20260504213047 | 24 | 174 | 3.2 | 6.4 | 0.00 | 0.00 | 0.00 | 35 | 1014.5 |
| 20260504211547 | 24 | 264 | 4.8 | 12.9 | 0.00 | 0.00 | 0.00 | 35 | 1014.6 |
| 20260504210041 | 24 | 257 | 1.6 | 12.9 | 0.00 | 0.00 | 0.00 | 36 | 1014.6 |
| 20260504204540 | 24 | 244 | 1.6 | 14.5 | 0.00 | 0.00 | 0.00 | 36 | 1014.7 |
| 20260504203046 | 24 | 199 | 1.6 | 12.9 | 0.00 | 0.00 | 0.00 | 36 | 1014.7 |
| 20260504201535 | 25 | 250 | 1.6 | 11.3 | 0.00 | 0.00 | 0.00 | 37 | 1015.0 |
| 20260504200042 | 24 | 235 | 1.6 | 12.9 | 0.00 | 0.00 | 0.00 | 36 | 1015.0 |
| 20260504194546 | 23 | 219 | 1.6 | 12.9 | 0.00 | 0.00 | 0.00 | 36 | 1015.3 |
| 20260504193037 | 24 | 131 | 1.6 | 8.0 | 0.00 | 0.00 | 0.00 | 38 | 1015.6 |
| 20260504191540 | 24 | 144 | 3.2 | 16.1 | 0.00 | 0.00 | 0.00 | 37 | 1015.8 |
| 20260504190034 | 23 | 253 | 1.6 | 6.4 | 0.00 | 0.00 | 0.00 | 37 | 1015.9 |
| 20260504184540 | 25 | 229 | 3.2 | 11.3 | 0.00 | 0.00 | 0.00 | 36 | 1016.2 |
| 20260504183042 | 24 | 181 | 3.2 | 6.4 | 0.00 | 0.00 | 0.00 | 36 | 1016.2 |
| 20260504181540 | 24 | 311 | 1.6 | 6.4 | 0.00 | 0.00 | 0.00 | 35 | 1016.4 |
| 20260504180045 | 23 | 275 | 1.6 | 3.2 | 0.00 | 0.00 | 0.00 | 34 | 1016.4 |
| 20260504174535 | 23 | 170 | 3.2 | 9.7 | 0.00 | 0.00 | 0.00 | 37 | 1016.7 |
| 20260504173035 | 23 | 232 | 1.6 | 9.7 | 0.00 | 0.00 | 0.00 | 36 | 1016.8 |
| 20260504171543 | 23 | 114 | 1.6 | 8.0 | 0.00 | 0.00 | 0.00 | 37 | 1016.8 |
| 20260504150111 | 19 | 248 | 1.6 | 4.8 | 0.00 | 0.00 | 0.00 | 41 | 1018.7 |